Theta_e
345 347 351 360 360 360 360 360 359 360 359 358 358 358 357 357 357 356 356 355 355 354 353 351 351 352 352 352 351 351 350 350 350 350 350 349 349 349 349 350 352 352 351 351 351 353 352 351 351 350 350 353 352 351 349 348 348 346 345 345 345 345 345 344 345 344 344 343 343 342 341 339 338 339 340 340 341 341 340 340 339 338 338 337 336
344 348 353 358 358 358 359 359 359 358 358 358 357 357 357 357 356 356 355 354 354 353 353 352 351 351 351 351 350 350 350 350 350 350 349 349 349 349 349 348 351 351 351 350 351 351 351 350 349 350 351 352 351 350 349 347 345 345 344 344 343 343 343 344 344 344 343 343 342 341 339 339 340 340 341 341 341 340 339 338 338 337 339 335 334
348 351 355 356 359 358 358 359 359 358 358 357 357 357 356 356 355 355 354 354 353 352 351 350 350 350 349 349 349 350 350 350 349 350 349 349 349 349 349 349 349 350 350 350 350 351 350 350 349 349 351 350 349 348 347 347 345 344 343 343 343 344 344 344 344 343 343 343 342 341 341 341 340 340 340 340 340 340 338 338 337 337 337 335 335
350 352 354 356 358 359 359 358 358 357 357 357 357 356 356 355 355 355 354 353 352 352 351 350 350 349 350 350 350 349 349 350 350 350 349 349 349 349 348 348 348 350 351 350 351 351 349 349 350 350 348 347 346 346 345 344 344 344 343 343 343 344 345 345 345 344 343 343 343 342 344 337 339 344 340 340 340 340 338 338 335 334 334 336 335
352 354 354 354 356 358 358 358 358 358 357 357 357 356 356 355 354 354 354 353 353 352 350 350 350 350 350 349 349 349 349 349 349 349 349 349 348 348 348 348 348 351 350 350 351 350 350 349 349 350 347 346 346 345 344 344 344 343 343 344 344 344 345 345 345 344 343 343 342 344 337 337 337 342 340 341 341 340 338 336 336 335 333 333 333
352 353 353 354 355 357 358 358 358 357 357 357 356 356 356 355 355 353 353 354 352 351 350 351 350 350 349 349 348 348 349 349 348 348 348 348 348 348 348 348 348 348 350 350 350 351 350 349 349 349 348 347 347 346 344 344 344 344 343 343 343 344 344 345 345 345 344 343 342 340 336 338 338 339 340 340 340 339 337 335 335 335 334 334 333
352 352 353 353 354 356 358 358 357 357 357 356 356 356 355 354 354 354 353 352 351 351 351 350 349 349 348 348 348 348 348 348 348 348 349 351 348 347 346 346 348 349 350 351 350 351 351 350 351 349 347 347 347 347 345 344 345 344 344 344 344 344 344 343 344 345 344 345 338 336 336 337 337 338 342 339 338 338 337 336 335 334 335 334 331
352 353 353 353 353 357 358 358 357 357 356 356 356 356 355 354 353 353 352 352 352 351 350 349 349 348 348 348 348 348 348 348 349 350 350 350 350 350 349 349 349 350 350 351 350 351 351 349 351 349 348 348 347 347 347 347 347 347 346 347 346 346 346 346 344 344 344 343 338 337 336 336 337 337 343 338 338 337 336 335 335 335 334 333 332
351 352 352 351 353 357 358 358 357 356 356 356 356 355 355 354 352 352 352 352 351 351 350 349 348 348 348 348 348 348 347 347 349 349 350 350 350 350 350 349 350 350 350 350 349 351 347 350 351 349 348 348 348 348 347 347 346 346 347 347 348 347 348 347 344 346 345 344 341 339 336 336 337 337 342 338 337 337 337 336 340 335 334 332 332
351 350 350 350 353 357 357 357 357 356 356 355 355 355 354 353 353 352 352 352 351 350 349 348 348 348 348 347 347 346 346 346 346 349 349 349 349 349 349 349 349 349 349 350 348 347 348 349 351 349 349 349 349 348 347 346 347 347 348 348 347 347 348 347 347 345 344 342 342 341 339 338 336 337 339 341 338 337 338 338 339 334 332 331 331
349 349 350 351 353 357 357 357 356 355 355 355 355 355 354 353 353 352 352 351 350 350 349 348 347 347 347 347 346 346 346 346 348 348 348 348 349 350 349 349 349 349 349 349 347 346 350 351 351 349 349 348 348 347 346 347 347 348 348 348 347 348 348 347 347 343 342 340 339 340 342 343 337 337 341 341 338 337 338 337 335 334 333 333 333
349 348 349 352 356 357 357 356 355 355 355 355 355 354 354 353 352 352 352 351 350 349 348 348 348 347 346 346 346 345 345 348 348 349 349 349 349 349 349 349 348 348 349 348 350 350 350 350 349 348 348 347 347 346 346 347 347 348 348 348 348 348 348 348 345 343 341 340 338 340 339 342 338 337 342 342 339 338 338 336 335 335 334 333 331
347 347 350 351 353 356 356 356 355 355 355 355 354 354 353 353 352 352 351 351 350 349 348 348 347 347 346 346 345 345 345 347 347 347 348 348 349 349 349 349 350 350 349 350 350 350 349 350 349 347 347 346 346 346 345 347 347 347 348 348 348 348 348 348 345 342 341 341 340 337 338 342 338 340 342 342 340 340 339 337 335 335 333 333 331
347 349 348 351 352 356 355 355 355 354 354 354 354 354 353 352 352 351 350 350 349 349 348 348 347 347 346 345 345 345 345 346 347 347 348 348 349 349 350 350 350 350 350 350 349 349 350 349 348 347 346 346 345 346 346 347 347 348 348 348 348 349 348 348 346 342 342 340 342 338 339 340 337 342 342 342 341 340 339 338 336 334 333 332 332
347 349 350 350 351 352 355 354 354 354 354 354 353 352 352 352 352 351 350 349 349 348 348 347 347 347 346 346 346 346 346 346 346 346 347 348 348 348 350 350 350 350 350 349 349 349 348 348 347 347 346 345 345 345 345 346 347 348 348 348 348 349 349 347 345 342 341 340 340 338 336 337 339 343 342 343 340 339 338 337 336 334 333 332 331
349 348 349 348 350 351 351 354 354 354 354 353 352 352 352 352 351 350 350 349 348 348 348 347 347 347 346 346 346 346 346 346 346 347 347 347 348 348 349 349 349 349 348 349 349 348 348 347 346 346 345 345 345 345 346 347 347 347 348 348 348 348 349 349 344 342 341 339 342 339 336 337 341 342 343 343 340 338 338 337 335 334 333 333 331
349 349 347 347 348 349 350 351 353 354 354 353 353 353 352 351 351 351 350 349 348 348 348 347 347 347 346 346 347 347 346 345 346 347 346 347 347 347 348 348 348 348 348 348 348 347 346 345 346 345 345 345 346 345 346 347 347 347 348 348 349 350 350 349 344 341 340 341 339 339 338 338 342 343 345 344 340 339 338 336 335 334 332 333 332
349 348 347 348 348 349 350 349 350 351 350 352 353 353 352 351 351 351 350 349 349 349 348 348 348 348 347 347 347 347 346 345 345 345 346 346 346 346 347 347 347 347 348 347 347 347 346 346 346 346 345 346 346 346 346 347 347 347 348 349 349 350 350 350 343 341 339 341 336 342 339 340 343 344 345 344 341 339 338 337 335 334 333 333 333
348 348 349 348 348 347 348 348 349 349 348 347 349 350 352 351 352 351 350 349 349 349 349 349 348 348 348 348 346 347 346 346 345 345 345 345 346 346 345 346 346 346 347 347 347 347 346 346 346 345 345 345 346 346 346 347 347 347 348 348 348 348 348 345 343 341 340 337 337 341 339 341 344 346 346 344 342 340 338 338 336 335 334 334 333
347 347 348 347 347 348 349 349 348 347 347 347 347 348 350 350 350 352 350 349 349 349 349 349 348 349 348 348 347 347 346 345 345 346 345 345 345 346 346 345 345 346 346 347 346 346 346 346 345 346 346 346 346 346 347 347 347 347 348 348 348 348 344 341 340 340 339 338 340 341 341 343 345 347 346 345 342 341 339 338 337 336 335 334 333
345 346 347 346 347 349 350 350 349 348 347 345 345 345 349 351 350 351 350 349 350 349 349 349 349 348 348 348 347 346 343 344 344 344 345 347 345 344 344 344 344 345 346 346 345 346 345 346 345 346 346 346 346 347 347 347 347 346 346 347 347 343 340 339 339 340 340 339 338 338 343 344 345 347 347 345 343 341 340 339 337 336 336 335 333
342 343 347 347 348 349 348 349 349 349 347 346 346 347 349 350 345 346 347 347 349 348 348 345 348 345 348 347 344 346 340 339 342 345 346 346 345 344 345 344 343 344 345 345 346 345 345 344 345 345 345 345 345 341 339 342 344 345 346 346 341 337 337 337 337 338 339 338 339 337 341 345 346 348 347 346 344 343 341 339 337 336 336 335 334
340 342 345 346 347 348 347 347 347 349 348 347 346 346 346 345 344 343 347 349 348 348 344 347 341 342 344 344 345 343 339 342 343 346 348 346 346 346 345 345 345 345 345 345 345 345 345 345 345 345 346 346 343 338 338 338 338 342 342 338 336 336 335 335 336 337 337 337 340 339 341 345 347 349 348 347 345 344 342 340 339 338 337 336 334
339 341 342 346 347 347 347 347 347 348 348 348 347 345 345 344 343 342 343 343 344 346 341 341 341 341 341 342 342 343 342 339 348 347 347 347 345 348 347 346 346 345 346 346 347 347 346 346 346 346 345 341 339 339 339 338 338 338 337 337 336 335 334 334 335 335 336 335 337 340 341 344 347 349 350 347 346 345 343 341 340 339 338 336 335
340 342 342 342 345 347 347 347 347 348 347 347 347 347 346 343 342 342 341 341 341 340 341 340 340 340 340 342 340 344 341 339 340 342 343 343 341 341 342 342 344 339 348 338 338 338 339 337 338 339 337 338 338 338 338 338 338 338 337 337 335 334 333 334 334 334 334 334 335 339 341 344 348 349 350 348 347 346 344 342 341 340 339 338 337
342 340 340 342 344 346 347 347 347 347 346 346 347 348 347 344 343 343 342 340 340 340 340 340 339 340 339 342 344 341 340 340 340 340 342 339 340 340 339 338 340 341 343 339 338 338 337 337 337 337 338 338 337 338 338 340 338 338 336 335 335 335 334 334 333 333 333 332 332 337 340 344 348 350 350 349 348 347 345 344 342 341 340 338 337
339 340 341 343 344 346 346 347 346 346 346 347 347 346 345 346 345 344 343 342 341 340 340 339 340 339 339 343 342 339 339 339 339 338 339 338 338 338 338 338 338 337 340 340 339 338 338 338 337 337 337 337 337 337 337 337 337 335 335 336 337 336 335 334 333 333 333 332 333 336 340 343 349 351 350 349 348 348 346 344 343 342 342 340 338
339 339 341 343 343 344 346 346 346 346 346 346 346 345 344 346 344 346 345 345 343 341 340 340 341 341 342 341 346 340 339 339 339 339 339 336 338 338 337 337 337 337 339 340 339 338 338 337 337 337 337 338 337 337 336 336 335 336 337 337 337 337 337 335 334 335 334 333 333 336 340 344 350 351 350 349 348 348 347 345 345 343 342 341 339
337 338 339 341 343 345 345 345 346 346 346 347 345 345 345 345 345 345 344 348 343 342 341 341 341 341 343 343 345 341 339 339 339 339 337 337 336 337 336 336 336 336 337 337 338 338 338 337 338 338 337 336 336 336 337 339 339 338 337 337 337 338 338 336 335 336 337 336 336 338 342 345 351 351 350 349 349 348 348 347 345 344 343 342 341
337 337 337 339 341 344 343 343 344 345 346 346 345 344 345 344 344 345 344 347 343 342 342 341 341 341 341 343 343 343 340 340 339 339 338 337 336 335 336 335 336 335 337 336 337 338 337 337 336 337 337 336 336 337 342 339 337 337 337 339 339 339 339 336 336 337 337 336 336 340 343 347 351 351 350 349 349 349 349 349 347 345 344 343 342
338 336 337 338 341 342 342 342 343 346 345 345 345 345 345 344 343 344 343 345 344 344 343 342 341 342 342 342 343 344 342 340 340 339 338 337 336 335 335 335 335 335 336 337 336 337 336 336 335 336 337 336 337 337 338 337 336 336 338 338 339 340 339 338 338 337 336 337 335 337 339 345 350 351 349 349 349 349 349 349 349 347 344 344 343
337 336 337 339 340 341 341 341 342 345 345 345 346 345 344 344 342 342 342 343 345 343 342 342 344 342 343 342 342 342 345 341 340 339 338 337 336 335 335 334 336 336 336 336 335 337 338 336 338 338 337 336 336 336 336 336 336 336 337 338 339 338 338 338 338 337 336 337 337 335 337 339 344 351 350 348 349 349 349 350 349 348 347 345 343
338 338 338 339 339 340 340 340 342 344 344 344 345 345 344 343 342 341 343 344 344 343 342 342 342 342 343 343 342 342 344 342 340 340 342 337 336 335 334 336 336 336 336 337 337 336 335 335 335 339 336 337 337 337 338 337 336 337 336 337 337 336 337 337 338 337 337 337 337 336 335 337 341 344 349 350 349 348 349 349 349 349 347 346 345
338 338 338 338 340 341 341 341 341 343 343 343 344 343 343 341 343 341 345 344 343 343 344 342 343 343 343 342 342 342 343 342 340 339 339 337 335 335 335 335 336 337 337 337 336 334 334 334 335 335 338 337 335 336 337 336 336 336 335 335 335 336 336 336 337 337 337 337 337 336 336 337 338 343 345 349 350 349 348 349 349 349 348 347 345
339 337 337 338 340 340 341 339 342 341 344 342 344 342 342 342 341 341 342 343 343 343 343 342 341 342 342 341 342 342 344 341 340 339 338 337 336 335 335 336 337 339 337 337 336 334 334 334 335 335 334 335 334 336 335 333 333 333 334 335 334 335 335 335 336 336 337 337 337 337 337 336 337 339 343 345 347 349 349 348 348 349 349 348 346
338 338 338 339 339 339 342 339 341 341 342 342 342 342 342 341 341 343 341 342 343 342 342 342 342 342 343 341 341 342 344 341 340 339 338 337 337 336 337 338 338 339 338 337 337 335 333 334 335 335 334 334 334 333 333 332 332 332 333 334 334 335 335 335 335 335 336 337 337 336 336 336 336 336 339 341 343 344 346 348 348 348 349 349 348
339 338 338 338 339 339 343 339 339 340 341 341 341 341 340 340 340 341 340 341 341 342 341 341 341 341 341 341 341 343 344 341 341 340 339 338 337 337 338 338 339 338 337 335 337 338 335 336 333 335 333 332 332 332 333 332 331 332 332 333 333 334 334 334 334 335 336 336 336 336 336 336 337 339 340 340 341 341 342 345 348 348 348 348 348
339 338 338 339 339 339 341 340 340 340 341 341 341 340 340 340 340 340 344 340 341 341 341 341 340 340 340 341 341 343 344 341 341 340 339 339 338 337 336 337 338 337 336 335 335 336 335 334 335 334 334 333 333 332 332 332 332 332 332 332 333 333 333 334 334 336 335 335 336 336 337 337 337 336 336 336 338 340 341 342 344 347 348 347 347
338 338 338 339 339 339 341 341 340 340 340 341 341 340 339 339 338 339 340 339 339 340 340 340 340 340 340 341 341 343 345 341 341 341 338 340 336 334 334 336 337 335 335 335 336 337 338 335 336 335 335 334 334 333 332 332 332 332 331 332 332 332 333 333 335 334 334 334 335 336 337 338 336 336 335 336 337 338 339 341 341 343 345 347 347
337 338 338 339 339 339 341 341 340 340 340 340 340 338 338 338 337 336 337 339 338 339 339 340 339 340 341 341 341 342 344 342 341 340 340 340 336 335 336 335 335 334 334 335 335 335 337 336 335 334 334 334 334 334 334 333 332 331 330 331 331 330 331 333 333 332 334 335 335 336 336 337 337 337 335 335 337 337 339 339 340 340 343 345 346
337 337 338 338 339 340 340 339 340 340 340 339 338 337 336 336 335 337 337 338 338 339 340 339 339 340 342 341 342 342 342 342 342 340 339 342 338 336 334 336 336 335 333 334 335 334 333 334 332 334 335 333 332 332 334 333 329 327 328 328 330 331 333 332 330 331 331 331 334 334 336 336 336 336 336 335 335 337 338 339 339 339 340 342 343
336 337 337 338 339 340 340 340 340 340 340 340 339 338 338 338 337 337 336 337 339 340 337 338 340 341 342 342 342 341 341 342 342 341 340 340 336 336 335 335 334 333 333 334 334 337 335 332 331 332 330 331 331 333 333 331 326 323 322 323 326 327 328 327 328 329 328 330 332 333 335 335 335 336 336 335 335 335 337 339 340 339 339 340 341
337 337 338 339 339 340 340 341 340 340 340 341 340 339 338 339 339 337 338 336 338 340 340 340 342 340 341 342 342 341 341 341 341 342 339 339 337 336 335 332 333 336 334 330 329 330 329 331 332 332 331 333 333 333 333 332 325 327 328 324 318 319 323 324 323 327 327 330 330 330 333 334 335 336 336 336 335 334 335 337 339 339 339 339 340
337 337 338 338 339 340 340 340 340 341 340 341 342 340 340 339 339 339 338 337 335 341 336 338 338 339 338 340 340 340 341 340 341 341 338 334 336 336 331 331 331 335 332 329 327 327 328 330 332 334 334 328 328 325 332 330 329 327 317 318 319 319 314 317 321 324 328 328 328 328 330 332 334 334 336 334 335 335 335 336 337 338 339 340 340
336 337 338 339 340 340 340 340 340 340 341 342 342 339 340 337 337 337 338 337 336 334 334 332 335 336 332 335 335 336 337 337 338 339 338 334 331 329 329 329 331 333 332 329 325 327 328 328 331 332 332 329 327 329 328 330 328 330 326 320 315 312 314 319 321 320 326 323 324 328 330 329 330 331 331 332 334 335 335 336 336 337 338 339 339
336 338 339 340 340 340 341 341 340 340 340 341 341 340 340 336 335 334 333 334 332 332 332 331 330 332 333 328 326 329 330 329 329 332 336 332 330 326 327 327 327 329 330 328 324 324 324 326 329 331 330 331 329 326 323 327 327 326 328 328 323 318 317 320 318 312 322 324 326 328 328 328 329 328 329 330 332 334 336 336 336 336 337 338 339
336 338 338 339 340 340 340 340 340 339 340 341 340 341 338 337 336 336 336 335 333 332 333 333 332 330 326 323 323 322 323 322 321 323 324 327 323 322 322 321 319 321 327 319 315 315 315 321 327 328 328 328 329 323 322 321 324 323 324 327 327 327 326 319 313 316 312 319 325 324 324 326 327 325 326 329 331 332 333 336 336 336 337 338 339
336 336 337 338 338 339 339 339 340 340 340 341 339 340 338 336 335 336 336 334 334 331 331 330 328 325 322 321 318 318 316 316 317 317 319 321 318 316 316 314 312 318 325 312 313 313 315 318 322 323 324 323 324 319 317 320 318 318 323 321 324 326 326 326 324 319 314 310 313 320 323 326 323 324 327 328 328 330 332 333 334 335 337 338 339
335 336 336 337 337 337 338 338 338 339 339 340 340 339 338 335 335 332 331 333 332 330 329 329 323 323 320 317 316 315 314 314 313 315 316 317 323 315 314 313 311 315 328 316 316 316 314 315 314 315 316 319 320 321 321 317 318 316 317 316 318 319 322 322 322 322 316 312 312 314 316 321 322 324 324 325 328 331 332 331 333 335 336 337 339
334 335 334 334 335 335 336 337 337 338 339 339 340 337 331 332 331 331 331 328 329 324 324 321 319 318 318 314 314 314 313 313 312 312 313 318 320 318 313 312 312 313 326 315 313 314 315 315 314 313 313 313 315 320 317 316 317 318 318 318 316 317 318 320 320 319 319 319 313 313 315 315 314 320 323 325 326 327 328 331 332 334 335 336 337
332 333 332 333 333 334 335 335 337 337 337 337 338 336 334 330 331 330 329 326 323 322 321 319 317 314 316 313 313 313 313 311 313 314 313 314 315 320 314 312 315 327 326 316 314 314 314 314 314 314 318 312 311 311 317 315 317 316 316 317 317 316 315 315 315 317 317 314 313 313 315 317 317 317 321 324 324 326 328 331 331 333 334 335 336
Wind_Speed
1 3 3 8 10 12 12 14 15 15 16 16 15 16 16 16 17 17 16 16 16 16 15 15 14 14 14 15 15 15 15 14 13 13 13 13 12 11 11 11 10 9 8 7 7 7 8 10 10 10 11 12 14 15 14 14 13 13 12 12 11 11 10 10 11 10 9 8 7 7 5 3 4 5 4 5 6 7 6 6 7 5 4 5 6
3 2 3 6 12 11 13 14 15 14 15 15 16 16 16 16 16 16 16 16 16 15 15 14 14 13 14 14 15 14 14 14 13 12 12 12 11 11 10 9 11 10 9 8 8 8 8 13 9 9 12 14 15 14 13 12 12 12 11 11 10 9 9 10 9 8 8 7 6 6 5 3 2 3 3 5 4 6 6 6 6 4 1 5 6
5 6 4 7 13 12 13 14 14 15 15 16 16 16 16 16 16 16 15 15 15 14 14 14 14 13 13 14 14 14 13 13 12 11 11 11 11 10 10 9 9 10 8 8 9 9 8 10 10 11 13 14 13 12 12 11 11 11 11 10 9 9 9 9 8 7 6 6 5 5 4 3 1 2 2 4 5 6 6 6 5 4 1 5 5
7 5 5 9 13 12 13 14 14 15 15 16 16 16 15 16 15 15 15 15 15 14 14 13 14 14 13 13 13 12 12 12 12 11 10 10 10 10 10 10 8 10 9 8 9 11 11 11 11 13 14 14 12 12 11 11 11 11 10 9 9 9 8 8 6 5 5 4 4 4 2 3 4 3 2 3 5 6 5 5 4 3 3 5 6
8 6 7 7 8 10 13 14 14 15 16 16 16 15 15 15 15 15 15 14 14 14 13 13 13 13 13 12 12 12 11 11 11 10 10 9 10 9 9 9 9 9 8 9 11 12 11 9 10 14 14 13 13 12 11 11 10 10 9 9 9 8 7 6 5 4 3 3 4 3 1 1 2 3 2 4 5 6 5 4 4 4 3 5 4
8 7 7 7 8 8 12 13 14 15 16 16 15 15 15 15 15 15 14 14 14 14 13 13 12 12 12 12 11 11 10 10 10 10 9 9 9 9 10 9 8 8 8 9 12 12 10 9 12 14 14 12 13 12 11 10 10 9 8 7 7 7 5 5 4 4 4 3 5 3 2 1 0 1 1 4 5 4 4 3 4 5 4 5 4
9 5 6 7 6 8 12 12 14 15 15 15 14 14 14 15 15 14 14 14 14 13 13 12 12 12 11 11 11 10 10 9 9 9 9 8 7 7 8 9 8 7 8 10 10 11 10 9 12 13 13 12 12 11 10 9 9 8 7 7 6 5 4 3 3 3 3 2 3 3 2 2 1 0 2 4 4 4 4 4 4 5 5 4 2
6 6 6 6 5 8 12 11 13 14 15 14 14 14 14 14 13 14 13 13 13 13 12 12 12 11 11 10 11 10 10 9 9 9 8 8 8 8 9 8 6 6 6 8 10 10 11 10 13 13 12 12 11 11 10 9 8 8 7 7 6 5 4 3 2 2 4 2 3 3 3 3 3 1 2 3 3 4 4 3 3 4 3 3 2
7 5 4 4 4 12 11 10 12 14 14 14 13 13 13 13 13 13 13 13 12 12 11 11 11 10 10 10 10 9 9 10 9 8 8 8 7 7 7 7 6 6 5 6 7 10 10 8 12 12 12 11 11 10 9 8 7 7 7 7 6 5 5 5 6 8 5 0 3 3 4 4 3 3 3 4 3 3 3 2 3 3 4 3 3
6 5 4 4 5 13 12 11 12 13 14 13 13 13 13 13 13 13 13 12 12 12 11 11 10 10 9 9 9 8 8 7 7 7 7 7 7 6 5 6 5 5 5 5 9 9 10 9 11 11 11 11 10 9 7 6 6 7 7 6 5 6 6 7 8 5 3 3 3 4 5 6 4 3 4 5 4 2 3 3 4 6 3 4 4
6 5 4 5 7 13 12 11 12 13 13 13 12 12 12 12 12 12 12 11 11 11 11 10 10 10 10 9 9 8 7 7 7 7 7 7 6 6 6 5 5 3 4 9 10 7 8 10 10 10 10 10 9 7 6 6 6 6 6 5 5 5 6 6 6 3 3 4 4 4 6 12 5 4 6 6 5 3 2 4 2 4 4 4 5
7 5 5 5 11 14 12 11 12 13 13 12 12 12 12 11 11 11 11 10 10 10 10 10 9 9 9 8 8 7 7 7 6 7 7 7 6 6 5 5 4 4 5 6 8 9 9 10 9 8 8 8 7 6 5 4 4 5 6 5 4 4 5 6 4 3 4 5 5 4 5 8 6 5 9 7 6 3 4 3 3 4 3 1 1
6 5 5 4 6 13 12 12 12 12 12 12 12 11 11 11 10 10 10 10 10 10 10 9 9 9 8 8 7 6 7 7 7 8 7 7 7 6 5 6 6 6 6 8 8 8 9 10 9 8 7 7 6 5 5 5 4 5 5 4 3 4 5 6 3 3 4 5 4 4 2 4 5 8 9 8 6 5 4 5 4 3 2 2 1
6 5 3 3 4 12 13 12 12 12 12 12 12 11 10 10 10 9 9 10 9 9 9 9 9 8 8 7 6 6 6 7 7 7 7 7 7 7 7 7 8 9 9 9 8 9 10 9 8 8 6 6 5 5 5 6 7 7 7 6 5 6 6 4 4 3 3 4 4 3 1 2 4 9 9 8 6 5 4 5 5 2 1 2 3
7 5 4 3 4 6 13 12 12 12 11 11 11 11 10 10 9 9 9 9 9 8 8 8 8 7 7 7 6 6 6 6 6 6 6 6 6 7 8 8 9 9 9 8 8 8 7 7 6 6 6 4 4 4 5 7 8 8 9 8 7 8 10 3 2 3 3 4 2 2 1 1 5 8 9 7 5 4 5 4 4 3 3 3 3
4 4 4 3 4 5 5 10 13 12 12 12 11 11 10 10 9 9 9 9 8 8 7 7 7 6 6 6 6 6 5 5 5 6 5 5 6 6 7 8 8 8 8 8 7 7 6 6 5 5 5 4 4 4 4 6 7 8 9 9 9 10 10 7 2 3 4 4 2 2 1 1 5 8 8 8 5 3 3 4 2 4 4 5 3
5 4 4 4 4 4 4 5 8 13 12 12 12 11 11 10 10 10 9 9 8 8 7 7 7 6 5 6 6 5 5 5 5 5 5 6 6 6 6 7 7 7 7 7 6 5 5 5 4 4 4 4 4 5 6 8 9 10 10 11 11 10 10 10 4 4 4 4 4 1 2 1 5 8 8 7 4 5 4 2 4 4 3 6 5
6 5 5 4 4 4 4 4 6 6 6 9 11 12 11 11 11 11 11 11 10 9 8 8 7 6 6 6 5 5 5 5 4 5 5 5 5 5 5 5 5 6 6 5 5 5 4 4 4 3 3 4 4 4 6 7 8 10 11 12 12 11 10 10 4 4 4 5 5 1 2 3 6 8 9 7 5 5 4 5 6 5 4 4 5
6 7 5 6 5 4 4 4 4 4 4 4 4 8 12 11 11 11 11 11 11 10 10 8 7 7 7 6 5 5 4 4 5 4 4 4 4 4 4 4 3 4 4 4 4 4 4 3 3 3 3 4 5 6 6 7 8 8 9 10 10 11 11 6 3 3 3 2 3 2 2 5 7 8 9 7 7 6 5 6 7 7 6 5 6
7 7 7 5 5 5 5 4 4 4 4 4 4 4 9 11 11 11 11 11 11 10 10 9 8 8 7 7 6 4 4 3 4 2 3 3 3 3 3 2 2 3 3 3 2 2 2 2 3 3 3 5 5 6 6 7 7 8 9 10 10 10 5 4 5 4 3 2 3 2 4 7 7 8 9 8 7 7 6 7 7 7 6 6 5
6 7 7 6 6 7 7 5 6 6 5 4 4 4 5 10 9 10 11 11 10 10 9 9 8 7 6 6 5 2 1 1 1 1 1 0 2 2 2 1 1 2 1 1 1 1 1 2 2 3 3 4 5 5 6 7 8 9 9 10 10 5 4 4 4 3 3 3 2 2 5 7 8 8 9 8 8 8 7 7 7 8 7 6 4
8 8 7 6 7 7 7 7 6 7 5 4 4 4 3 7 3 4 4 6 7 8 6 3 6 2 7 3 3 2 2 2 1 3 1 0 1 1 1 1 1 1 1 1 1 2 3 3 4 4 5 5 6 3 4 5 8 9 9 10 6 4 4 4 4 4 4 3 3 3 6 8 9 9 10 9 9 9 8 8 8 7 6 5 4
8 7 7 7 6 6 7 8 8 7 7 5 4 4 3 5 4 3 4 5 5 4 2 3 2 2 1 3 2 2 2 2 1 1 1 2 2 3 3 2 2 3 3 3 3 4 5 5 6 6 7 7 4 4 4 4 5 7 7 5 5 5 5 5 4 4 4 4 3 5 6 8 9 10 10 10 10 10 10 8 9 8 7 6 5
9 8 8 6 7 7 8 7 9 8 7 6 5 5 4 5 4 4 4 4 3 3 3 2 2 2 2 3 3 2 2 2 3 5 4 2 2 4 4 4 4 3 4 2 3 4 6 6 7 8 5 4 4 4 4 4 4 4 4 4 4 5 5 4 4 4 4 5 4 7 7 7 9 10 11 11 11 11 10 9 10 9 7 6 5
8 7 7 9 9 7 7 7 7 6 6 5 5 4 4 4 4 4 4 4 3 3 4 3 3 2 3 2 3 2 3 2 2 2 2 2 3 3 3 3 1 2 3 2 2 3 3 4 4 4 4 4 5 5 4 4 4 4 4 4 4 4 4 4 3 3 4 4 5 8 8 8 10 11 11 11 11 12 11 10 10 10 8 7 7
7 8 9 9 10 8 8 7 8 8 8 6 6 6 6 4 4 5 4 3 4 4 3 4 3 3 2 2 2 3 3 2 2 3 3 2 4 4 4 2 2 3 1 2 2 2 3 3 3 3 3 3 3 4 3 3 4 4 4 4 4 4 4 4 4 4 4 4 5 9 8 9 11 12 12 11 12 12 12 11 10 9 9 6 6
8 8 8 8 9 9 9 8 8 7 8 7 6 6 5 5 5 5 5 4 4 4 4 3 3 4 3 2 3 3 2 2 2 3 4 2 3 4 4 3 3 3 2 2 3 2 2 3 3 3 3 3 3 3 4 4 3 3 3 4 4 4 4 5 5 5 5 5 5 10 9 9 11 12 12 12 12 12 12 12 11 11 10 8 6
7 8 9 8 9 11 10 9 9 8 7 8 7 6 5 6 6 7 5 5 5 5 4 4 4 4 3 3 1 2 2 2 3 3 4 3 4 3 3 3 3 3 1 1 3 3 3 2 3 4 4 3 3 3 3 3 3 2 3 4 4 4 4 4 4 5 5 5 5 7 9 8 10 10 12 12 12 13 13 13 12 11 11 10 8
10 9 8 8 9 10 10 10 9 10 7 7 8 7 6 6 6 6 6 7 5 5 4 4 4 3 3 3 3 3 3 3 4 4 3 4 4 3 3 3 3 3 2 2 2 3 3 3 3 3 3 4 3 4 3 3 3 2 3 3 3 4 4 4 4 6 6 5 5 5 9 8 8 9 10 12 12 13 13 13 13 12 11 11 10
10 8 8 8 7 8 9 10 10 8 8 7 6 7 7 8 8 6 5 7 5 4 4 4 3 4 4 4 4 4 4 4 4 3 4 4 4 3 3 3 3 3 2 3 3 3 3 3 3 3 3 4 3 3 2 3 3 3 2 3 3 3 3 4 4 4 6 6 5 4 8 8 8 9 10 11 12 12 13 13 13 12 11 11 11
9 9 8 7 7 8 8 8 8 9 6 7 7 7 6 6 7 6 6 6 5 5 4 4 4 4 4 4 4 4 4 4 4 4 4 4 3 3 4 3 3 3 3 3 2 3 2 3 3 3 3 3 3 1 2 3 3 3 3 3 3 3 3 3 4 4 5 5 5 4 4 8 8 9 10 11 11 12 13 13 13 13 12 12 12
10 10 8 6 7 9 9 8 8 7 8 8 8 7 8 7 6 5 6 5 5 5 5 4 5 4 4 4 4 4 4 4 4 4 4 4 4 3 4 3 5 3 3 3 3 2 2 2 2 2 2 2 3 3 2 2 3 3 2 3 2 3 3 3 4 4 4 5 5 4 4 4 7 9 10 11 11 12 13 13 13 13 13 12 13
6 8 9 8 8 9 8 9 8 7 8 9 8 7 6 6 5 6 5 5 5 5 5 5 5 5 4 5 5 5 4 5 5 5 4 4 4 4 4 4 4 3 3 3 2 2 3 3 3 2 2 2 3 3 3 2 3 4 3 3 2 3 3 3 3 4 4 4 4 3 3 3 3 6 9 11 11 11 12 13 13 13 13 13 13
8 6 7 10 8 6 6 7 8 9 9 8 7 5 6 6 5 5 5 5 5 5 5 5 5 5 5 5 5 5 5 5 5 5 4 4 4 4 4 4 4 3 2 2 2 1 3 3 3 3 3 3 3 3 3 4 4 3 4 4 4 3 3 4 4 4 4 4 4 4 4 2 2 3 4 8 10 11 12 12 13 13 13 13 13
7 7 11 11 9 8 7 6 8 9 9 8 8 7 6 6 6 6 5 6 5 5 5 5 5 5 4 4 5 5 5 5 5 5 5 4 4 4 4 4 2 2 2 1 1 1 2 3 3 4 4 3 3 3 3 4 4 5 5 5 6 5 3 4 4 4 4 4 4 4 4 4 2 2 3 3 6 9 10 12 12 12 12 13 13
11 10 9 9 11 9 9 8 8 9 9 9 8 7 7 7 6 6 5 5 5 5 6 6 5 5 5 5 5 5 5 6 6 5 5 5 5 4 4 3 2 2 2 1 1 2 2 2 2 2 4 5 5 5 4 5 5 5 5 5 5 5 5 4 4 5 4 3 3 4 4 4 3 3 3 3 3 5 10 10 12 12 12 12 11
9 9 10 9 10 11 11 11 11 10 9 9 8 6 6 6 6 6 7 6 6 6 5 5 5 5 5 5 5 5 5 6 6 6 5 5 4 4 3 3 3 2 2 1 1 1 1 2 2 2 1 3 4 5 6 5 6 6 6 5 5 5 5 5 5 4 4 4 4 4 4 4 4 4 3 2 3 3 6 9 11 13 13 13 12
8 9 10 12 12 10 10 11 11 11 10 9 8 7 6 6 6 6 5 6 6 6 5 5 5 5 5 5 5 5 5 6 6 6 5 5 4 4 3 3 3 2 2 1 1 0 1 1 2 1 2 2 3 4 5 6 5 7 7 6 6 5 6 7 5 4 4 5 4 4 4 4 4 4 3 3 3 3 4 6 9 12 14 14 13
7 8 9 9 8 8 8 9 9 10 9 9 7 6 5 4 3 5 5 5 5 5 5 5 5 5 6 6 6 6 5 6 6 6 5 5 4 3 3 3 3 3 2 1 1 1 0 1 1 2 1 1 2 4 4 4 6 7 7 7 6 7 6 5 4 4 3 4 4 4 3 3 3 3 3 3 3 3 4 4 3 5 7 14 13
7 7 8 8 9 8 7 8 8 9 8 7 6 6 5 6 6 3 3 4 4 4 5 6 5 6 6 6 7 6 6 6 6 6 5 5 4 4 4 3 3 3 2 2 2 2 2 1 1 1 2 2 1 2 3 5 6 6 6 7 6 6 6 5 4 3 3 4 4 3 3 3 3 3 3 3 2 3 4 4 4 4 5 7 12
7 8 9 9 9 10 9 10 8 8 8 8 7 7 6 5 3 6 7 6 6 6 6 5 6 6 6 7 7 6 7 6 6 6 6 5 4 4 3 3 3 3 3 3 3 2 2 1 1 0 1 1 2 2 4 4 6 6 4 5 7 6 6 4 3 3 5 6 4 3 3 3 3 3 2 3 3 3 3 4 4 4 5 5 7
9 9 11 11 10 10 11 10 8 9 9 10 9 8 8 8 7 7 6 6 6 6 5 5 6 5 6 6 6 7 7 6 6 5 5 6 5 4 4 3 3 2 2 2 3 3 3 2 1 2 1 1 2 2 4 4 3 6 7 8 5 5 6 3 2 5 9 6 5 4 3 3 4 3 3 2 3 3 4 4 4 4 5 4 6
9 10 9 9 9 9 9 9 9 9 9 9 9 8 6 7 7 5 7 4 2 4 6 6 5 6 6 6 6 7 7 6 7 6 5 5 5 5 4 3 2 3 3 1 2 2 2 2 2 1 2 1 1 2 3 2 3 5 5 4 4 8 6 6 3 10 9 5 6 6 5 4 5 4 3 3 3 3 3 3 4 4 4 5 4
7 7 8 11 9 9 9 9 9 9 9 9 9 7 8 6 4 6 4 4 4 4 3 3 4 6 6 6 6 7 7 7 6 6 4 4 5 5 3 3 2 3 3 3 2 1 2 2 2 2 1 1 1 2 2 3 1 4 4 2 4 3 5 3 9 8 5 5 6 7 5 4 4 5 4 5 5 4 4 3 4 4 5 5 5
9 10 10 10 9 11 10 10 10 10 8 9 9 6 6 4 4 4 5 5 5 5 5 3 3 4 5 5 6 7 7 8 6 6 6 6 5 5 4 3 3 3 3 3 2 2 2 2 2 1 2 1 2 1 2 4 5 4 2 3 3 2 1 5 8 7 4 8 8 6 4 6 7 6 6 6 6 5 4 5 4 4 5 5 5
10 10 10 10 9 9 9 8 7 7 8 8 8 8 8 8 7 7 6 5 5 6 6 7 5 6 7 4 4 6 8 7 6 6 6 6 6 5 5 5 3 3 3 3 3 3 3 3 3 3 2 1 1 2 2 3 3 4 3 2 2 3 5 5 3 5 5 5 6 3 5 6 4 6 6 6 6 6 4 5 4 4 5 5 5
10 8 7 8 8 8 8 9 8 7 7 7 8 8 8 7 10 10 9 9 8 5 5 6 7 4 5 6 5 3 8 8 6 6 6 5 6 5 6 5 5 4 3 4 4 4 4 3 3 3 3 2 3 2 2 2 3 1 1 2 3 3 2 3 2 5 9 3 3 5 6 5 5 6 6 6 6 6 6 5 6 5 5 5 5
7 7 8 8 10 10 9 9 7 7 7 7 9 9 10 9 9 8 8 9 9 8 7 6 5 6 6 6 5 4 6 7 7 6 6 6 6 6 6 5 5 4 3 5 5 4 4 3 4 4 4 3 3 3 1 1 2 2 1 2 3 3 3 5 5 5 7 9 9 6 4 3 7 6 5 6 7 6 7 7 7 6 5 5 4
8 9 8 7 6 6 7 7 8 8 8 9 9 9 7 7 7 5 5 4 5 6 5 4 6 5 7 4 5 5 5 5 7 7 6 6 5 6 5 5 5 4 4 5 4 5 5 5 4 4 4 3 3 3 2 2 3 2 1 1 2 2 2 3 5 4 4 6 9 6 10 9 3 4 5 7 5 4 6 8 7 6 6 6 4
4 4 4 5 5 6 7 8 8 7 8 9 9 9 6 4 6 8 9 5 4 5 5 6 5 5 7 6 5 6 6 6 5 6 6 6 6 5 5 4 4 5 3 5 5 4 4 4 5 5 5 4 3 4 4 3 2 2 2 2 1 2 2 1 1 2 4 5 8 9 6 9 12 3 6 5 7 7 7 6 7 6 5 5 5
4 5 5 5 5 6 7 8 9 6 5 7 7 7 7 7 6 2 2 5 6 8 7 5 5 5 7 6 6 6 6 7 6 5 6 6 5 4 5 5 4 4 4 4 4 3 3 3 4 4 3 4 4 5 3 2 2 2 3 3 3 3 3 3 4 3 3 5 6 7 5 5 7 13 4 5 8 8 5 5 7 6 5 5 5
Wind_Direction
344 89 106 124 113 116 115 115 113 112 118 119 116 111 107 106 106 106 105 103 103 102 102 103 103 104 106 107 110 111 111 110 110 111 111 109 109 109 112 112 111 109 112 114 108 99 96 89 71 86 88 81 78 78 78 78 78 78 78 76 74 72 71 74 71 70 68 65 70 71 70 77 72 77 96 89 107 101 87 82 78 64 42 69 68
135 63 95 112 111 120 120 117 114 122 121 118 113 110 108 108 108 107 107 106 106 107 107 107 109 110 111 111 113 114 113 113 113 113 114 114 112 108 103 104 110 104 105 109 111 106 102 99 113 78 80 81 78 80 80 80 80 79 77 74 70 67 66 75 74 74 71 72 78 83 79 81 54 52 72 99 111 104 90 89 85 74 19 91 89
124 111 122 118 120 119 120 118 124 127 122 116 113 111 111 110 109 109 109 110 110 109 106 106 108 110 111 112 113 113 114 114 113 112 112 110 107 106 100 99 103 99 92 95 103 105 100 102 93 101 87 79 79 81 84 85 85 83 80 76 76 74 72 70 72 79 77 81 89 97 81 66 129 131 103 117 122 98 102 98 103 105 209 120 105
114 113 117 121 121 123 125 131 132 129 123 118 117 115 115 113 113 111 108 107 107 106 105 106 108 111 113 113 113 113 114 115 115 113 111 111 110 108 108 102 97 84 83 91 99 99 91 85 98 92 85 84 86 89 91 94 90 86 82 85 81 78 80 84 78 74 95 95 102 96 61 44 12 354 110 118 113 114 116 118 110 133 127 128 126
119 126 127 127 127 133 136 138 136 131 125 122 120 119 119 116 113 108 107 107 106 105 106 108 109 110 111 112 112 112 113 115 116 115 115 117 116 107 101 107 101 86 89 95 94 91 94 99 99 92 91 92 94 97 99 98 97 96 95 86 89 93 92 101 111 107 97 112 129 113 67 60 42 352 113 123 120 121 133 128 128 123 100 66 67
134 137 130 128 131 142 141 140 138 131 123 120 120 119 114 111 109 109 108 106 107 108 108 108 108 109 110 111 111 111 111 111 115 115 115 114 112 107 103 100 102 99 92 99 108 105 108 113 100 97 97 99 99 100 102 102 103 103 102 99 93 89 102 120 138 144 148 158 147 133 168 199 38 335 248 140 136 130 125 129 129 123 124 118 138
130 126 125 132 139 148 146 141 133 126 122 120 117 112 110 109 110 109 110 112 113 114 114 114 114 115 116 117 116 114 115 114 113 110 96 79 88 106 108 112 107 100 97 103 112 116 116 106 104 100 101 101 100 101 104 105 103 102 98 94 91 79 73 107 158 177 184 142 131 168 200 218 210 92 271 140 134 142 138 164 147 109 87 80 73
117 125 137 140 137 145 137 130 127 123 119 114 112 110 111 111 112 112 113 115 114 114 116 116 117 119 120 119 117 117 121 124 116 102 99 97 94 91 100 98 97 102 104 109 124 125 119 108 102 101 102 100 101 102 104 105 103 98 91 86 75 59 45 28 359 311 308 168 177 192 203 221 216 189 287 147 152 152 168 165 110 98 94 98 60
119 124 119 102 120 133 127 123 122 118 116 116 116 117 116 115 115 116 115 113 115 116 117 118 120 120 119 118 118 119 120 117 107 102 95 98 98 98 98 99 103 104 103 110 114 123 88 97 101 102 104 103 103 104 101 100 97 89 80 70 59 43 26 5 7 9 359 320 208 212 202 209 207 201 239 183 173 158 161 100 70 125 97 65 90
110 88 80 89 123 132 127 123 124 122 121 121 120 121 121 119 118 118 119 119 121 122 121 122 121 118 115 113 111 109 111 107 98 83 86 84 86 86 85 88 91 91 102 110 100 75 124 121 103 105 107 108 106 104 101 94 86 78 71 63 51 34 20 16 17 1 348 321 273 225 207 203 201 185 218 222 185 180 138 105 88 97 103 103 107
95 93 96 115 134 135 132 129 125 125 126 127 126 122 119 119 121 122 122 122 122 120 118 117 118 118 117 115 111 108 110 102 89 89 89 87 84 82 79 82 84 88 101 100 113 149 124 102 97 105 109 108 106 104 99 89 84 77 70 57 41 32 20 18 19 341 334 311 286 252 223 209 182 181 207 209 191 204 142 116 153 131 125 149 137
115 117 124 137 143 139 134 129 128 130 130 127 123 120 120 119 119 120 120 120 117 114 114 115 114 109 107 105 104 109 107 93 86 86 86 89 89 88 85 84 94 91 87 90 110 120 102 89 86 87 89 93 92 86 82 75 71 74 72 57 35 23 19 20 27 351 328 327 322 297 219 212 178 186 197 203 190 190 135 138 164 172 166 323 185
132 132 139 145 132 141 135 129 128 129 126 122 120 119 119 121 122 122 122 119 116 113 112 111 111 109 108 108 111 111 108 104 99 87 84 83 88 93 94 90 90 89 96 102 100 98 87 84 83 78 76 72 67 54 40 33 27 36 55 56 25 13 17 16 40 7 343 344 335 337 176 193 166 184 194 195 183 199 173 165 165 190 196 137 153
129 128 125 116 133 140 135 130 129 128 128 127 128 127 125 124 124 122 121 118 114 113 109 109 108 107 107 109 113 111 104 95 88 86 84 90 87 89 90 95 99 102 102 100 96 95 92 93 89 86 80 70 56 37 20 10 3 5 12 24 3 1 8 17 25 4 356 356 338 356 111 161 173 188 183 190 182 220 184 185 192 221 123 168 134
133 122 108 120 129 133 140 136 133 132 132 133 131 129 128 126 124 123 119 117 114 112 109 108 107 106 109 112 110 100 92 91 93 88 80 81 85 85 86 93 97 97 97 92 88 86 82 86 83 83 81 69 52 39 18 1 356 356 357 3 6 358 354 27 9 359 0 355 358 43 21 148 190 186 180 176 183 199 178 181 194 234 152 129 152
109 113 113 111 120 137 133 141 138 137 136 138 135 134 133 132 128 124 119 116 115 114 110 106 106 102 107 107 102 97 96 91 91 90 89 90 90 86 85 89 92 90 86 80 77 73 66 68 67 68 66 61 34 17 15 2 351 348 351 352 359 358 352 354 29 2 355 339 354 123 122 240 203 180 181 171 185 192 178 191 198 205 154 153 159
124 115 111 117 121 112 131 134 144 145 144 144 143 141 139 135 132 126 120 117 119 117 117 117 114 119 114 114 113 109 114 114 116 115 101 92 88 92 82 78 79 81 75 75 77 78 77 73 74 67 63 50 22 8 1 354 350 348 347 346 349 352 348 349 7 356 344 342 345 156 156 160 208 182 184 197 195 191 197 166 163 176 130 137 156
131 122 128 125 113 117 117 135 144 143 146 146 145 143 143 142 141 138 136 138 135 135 133 134 132 131 131 133 132 128 126 124 122 109 103 100 90 87 87 82 85 88 82 78 80 79 79 76 68 60 56 32 17 3 356 351 347 343 341 341 341 342 344 349 351 343 347 344 330 275 166 182 201 191 192 213 197 191 185 162 167 152 148 168 147
139 136 133 133 127 121 128 123 127 129 124 117 137 153 151 151 146 146 149 149 145 145 148 145 148 148 156 157 153 144 140 141 131 126 123 115 111 93 93 92 98 94 85 74 66 67 64 56 39 40 29 4 0 355 349 344 342 337 333 332 333 333 338 342 339 338 331 334 315 293 206 204 208 196 201 208 197 190 181 167 172 167 163 162 158
150 149 147 135 134 135 133 131 125 121 125 138 146 147 158 156 155 156 157 155 155 154 155 157 160 165 168 170 163 159 154 144 141 129 136 123 118 97 97 65 72 86 68 69 47 60 48 32 13 9 2 353 349 344 339 333 329 325 323 325 327 334 339 334 330 322 307 301 312 271 237 220 216 204 206 208 201 192 188 186 197 158 172 171 184
155 160 157 150 146 148 147 138 141 135 142 140 142 135 162 160 161 162 161 161 162 163 163 166 168 173 173 177 171 108 77 72 77 46 146 96 146 137 139 120 67 76 47 357 27 4 357 5 351 348 350 343 334 340 337 325 321 322 324 326 329 333 317 315 309 298 293 281 274 256 243 226 224 214 213 211 207 199 200 193 196 175 182 179 194
167 164 163 157 154 156 156 153 155 155 145 143 146 150 174 156 150 164 154 164 167 169 166 160 169 167 175 169 103 124 79 86 93 155 44 296 340 213 214 238 235 277 278 298 305 332 332 338 338 338 336 333 333 0 328 323 323 326 329 331 331 309 308 300 293 292 287 281 264 251 252 229 221 219 217 217 213 205 207 193 195 196 189 178 200
171 171 169 167 167 164 165 165 166 161 155 155 156 163 150 135 151 143 152 161 169 162 137 164 96 141 76 109 126 100 122 91 118 194 145 215 249 261 245 252 265 274 292 308 316 326 331 330 333 332 328 329 349 334 326 319 319 327 330 329 307 311 306 298 290 283 283 281 270 253 245 225 217 217 217 219 217 216 214 201 194 196 193 191 205
173 174 171 168 173 176 174 170 171 168 165 163 162 167 149 148 150 145 148 142 146 130 139 127 126 127 107 107 119 140 135 126 220 210 208 193 239 254 245 245 253 270 270 316 338 331 345 353 349 338 350 346 331 327 327 320 315 309 310 311 306 305 309 301 291 291 287 283 274 268 252 226 214 213 215 219 222 224 222 213 195 199 203 199 221
172 163 167 177 183 181 172 171 171 170 164 164 175 169 146 148 146 144 140 145 137 118 143 134 137 146 125 123 128 149 141 162 265 311 10 197 201 253 294 324 353 344 332 39 16 340 355 333 339 340 325 332 326 314 326 314 310 311 308 303 297 297 301 298 294 286 285 281 277 277 268 234 210 208 212 218 225 228 225 222 207 204 210 206 228
170 171 180 178 183 184 177 176 172 173 170 169 178 178 165 161 157 157 145 135 140 137 142 155 148 152 155 150 152 141 148 166 240 276 287 202 212 230 251 265 279 252 352 336 345 352 316 320 320 311 306 307 295 295 293 290 297 306 300 296 298 307 313 318 323 309 295 290 286 279 265 244 212 202 206 216 224 230 228 223 215 215 215 225 216
181 184 180 181 179 181 180 178 180 178 176 174 169 183 168 173 165 162 154 157 149 149 161 166 169 164 167 180 173 171 176 183 218 251 261 226 223 227 236 218 217 237 278 262 292 297 296 302 303 292 291 291 285 274 271 266 267 290 296 298 310 316 321 322 331 329 321 312 302 293 269 248 221 199 198 209 219 227 230 224 218 215 215 225 214
183 181 186 186 182 187 181 179 185 185 182 181 174 183 170 170 176 181 175 180 164 173 169 176 174 172 173 178 189 165 187 231 241 228 240 223 238 227 218 221 211 236 276 218 268 290 289 276 273 286 292 293 290 287 279 282 290 268 305 308 315 326 326 323 321 317 315 312 306 302 285 255 223 209 200 204 213 222 228 229 225 224 215 221 223
191 190 186 183 189 186 177 180 180 188 185 181 185 189 177 174 179 181 175 192 179 186 174 159 173 181 181 170 188 184 194 215 229 235 210 226 239 231 212 221 210 230 206 262 235 275 287 284 278 278 288 285 285 285 286 288 293 303 307 312 321 324 326 324 320 319 317 318 316 301 293 268 218 209 209 210 214 220 224 228 229 228 224 220 224
192 185 186 192 184 183 183 184 181 180 182 180 187 193 189 181 186 187 174 191 183 172 167 171 171 175 195 182 192 189 200 210 227 218 202 240 237 238 237 238 233 230 199 242 228 232 255 277 273 270 270 272 269 270 286 298 305 303 300 311 319 321 313 312 314 313 311 318 318 310 300 281 229 210 214 218 221 223 225 226 227 228 226 220 223
172 184 188 188 184 181 188 188 182 184 175 188 187 192 189 194 190 182 177 188 173 160 174 181 175 189 201 191 192 205 203 205 218 225 220 240 240 245 251 263 265 238 215 239 216 224 233 239 256 268 279 286 283 281 298 298 300 303 310 315 310 312 308 301 303 301 302 308 317 314 300 289 258 222 215 220 223 227 229 227 225 224 228 223 223
180 185 184 178 176 188 185 187 186 184 179 192 191 190 194 198 194 183 186 183 164 169 177 180 197 201 195 195 196 199 212 204 211 222 223 229 236 235 260 264 262 258 225 230 232 229 233 249 269 285 280 300 308 312 284 285 305 301 305 297 295 294 289 292 288 288 285 288 298 304 299 285 286 254 229 225 224 228 232 232 228 225 226 226 226
194 184 177 173 184 184 184 188 182 186 184 189 191 189 182 185 185 194 192 180 174 168 181 192 197 201 195 197 199 197 201 200 205 210 212 213 218 225 239 240 255 264 259 257 273 330 342 342 337 331 299 290 325 323 325 311 316 318 314 305 297 286 284 281 275 277 276 278 285 287 289 286 263 276 257 235 228 229 232 236 235 231 226 229 224
180 179 174 183 180 183 187 182 181 186 190 192 190 182 185 184 187 187 194 184 182 175 192 194 198 201 199 198 198 199 200 200 189 201 199 198 203 211 226 248 245 249 243 221 257 339 326 332 324 345 334 352 335 324 336 332 326 313 312 312 302 285 282 285 281 272 274 279 278 286 286 275 266 248 257 252 239 233 234 234 237 236 232 233 229
175 177 188 185 177 182 180 184 185 188 190 189 191 193 186 182 182 185 191 191 187 187 189 185 192 202 195 203 197 196 199 193 188 184 195 190 195 209 222 235 237 217 236 251 222 332 12 323 338 341 327 341 343 327 348 326 322 325 325 325 316 316 301 289 291 288 276 275 280 284 294 290 286 257 245 244 254 251 241 237 237 236 236 235 233
187 188 188 178 181 181 183 183 185 190 192 191 193 192 190 187 184 186 186 189 191 195 192 189 191 190 190 201 197 197 190 187 183 178 182 190 192 203 219 225 216 190 211 245 228 285 346 346 339 350 338 330 348 335 347 330 325 319 325 322 312 313 312 308 297 294 293 284 278 283 283 286 284 276 260 246 244 249 255 250 240 235 234 233 231
191 184 182 184 188 183 182 184 186 189 192 193 192 191 185 187 186 188 188 185 193 202 199 188 183 182 187 196 195 196 187 181 179 177 178 185 192 193 213 222 206 185 189 189 226 288 350 322 348 19 37 314 336 330 330 331 321 324 327 315 310 309 305 306 300 298 306 289 282 271 277 276 279 279 274 264 257 259 257 253 252 246 237 234 229
197 191 187 183 189 187 186 186 185 185 188 191 191 189 191 192 189 190 179 188 201 203 197 183 190 185 177 190 188 190 177 178 174 176 181 182 182 178 194 195 175 158 157 159 210 242 350 6 329 356 347 332 333 333 322 323 325 326 322 314 309 305 299 298 300 308 311 304 293 282 271 273 276 276 277 269 264 262 261 258 258 255 248 238 231
196 191 190 190 182 183 185 190 183 183 186 185 186 186 185 195 194 182 187 195 203 204 186 191 194 175 177 179 176 182 172 173 171 168 170 167 157 170 163 173 161 152 147 158 178 214 233 113 257 298 344 304 308 316 313 318 320 318 313 307 311 303 290 282 293 304 306 298 291 290 284 269 267 270 271 260 249 259 260 260 254 253 252 246 235
190 188 189 187 184 182 184 186 184 181 177 176 170 173 172 185 189 185 197 205 200 194 196 198 180 180 177 167 170 169 165 167 167 165 166 161 169 179 172 131 148 140 144 156 177 198 210 235 243 259 323 331 298 319 325 329 312 308 303 308 301 299 294 300 307 308 306 299 300 297 294 294 276 281 275 276 272 252 256 262 257 250 252 253 247
187 186 185 188 185 182 178 187 183 175 169 168 172 170 176 185 193 192 197 192 190 193 195 187 184 184 170 166 161 161 160 161 161 159 169 170 169 149 128 144 158 152 148 181 194 184 201 167 122 10 278 356 328 16 344 329 319 324 297 297 309 311 292 322 323 326 338 335 326 318 314 316 307 300 310 307 286 274 262 258 254 252 251 253 250
197 186 190 189 185 183 185 181 171 177 180 177 176 180 179 181 175 188 179 179 183 178 188 193 189 176 162 158 155 155 154 155 154 165 163 159 148 150 149 155 159 152 149 145 148 135 124 118 114 50 49 31 343 0 338 338 14 355 330 329 318 309 303 1 30 353 349 340 339 337 333 333 327 332 324 300 290 281 274 266 255 251 248 245 248
185 190 191 182 186 186 189 179 177 178 184 181 173 182 183 180 176 177 179 172 198 182 180 179 169 159 158 154 149 147 147 148 156 160 163 152 152 151 161 152 162 155 135 122 100 105 121 119 130 91 342 131 7 300 335 31 339 324 293 306 342 345 343 353 328 341 338 331 336 353 355 349 352 347 332 320 310 299 285 275 270 259 252 241 239
180 186 185 189 187 189 187 183 183 181 180 185 184 181 174 174 175 162 158 144 162 123 89 108 138 132 139 144 143 145 144 141 145 144 141 124 143 152 138 154 151 168 156 147 128 110 107 107 117 142 186 339 43 294 341 7 301 344 6 359 305 341 326 349 328 312 309 324 346 341 360 5 3 346 348 341 329 325 309 294 276 269 260 255 242
187 188 187 189 190 190 188 184 182 184 183 185 179 162 139 119 106 93 101 89 67 94 110 81 129 138 123 149 157 148 146 139 143 145 144 145 133 133 142 137 137 165 144 136 140 134 107 114 132 150 200 149 287 71 336 30 7 358 330 333 342 351 283 310 337 302 359 350 334 335 334 3 2 355 352 334 322 320 314 303 291 279 270 261 251
191 194 189 189 185 188 185 184 180 183 182 184 170 164 168 158 151 154 165 171 157 155 167 160 159 163 173 153 142 169 138 131 141 145 149 139 147 146 138 133 143 159 155 124 130 124 123 123 140 148 185 213 265 4 304 342 351 330 317 230 208 286 314 332 330 308 332 287 266 313 357 353 355 351 336 326 325 322 320 310 300 289 277 265 257
198 179 178 186 187 185 185 183 181 183 181 179 172 172 172 178 180 184 183 185 181 191 167 166 167 171 136 153 159 195 137 135 139 138 141 140 135 138 140 137 132 143 147 132 134 147 140 134 137 143 151 133 136 174 224 282 324 14 46 333 305 308 299 321 322 312 312 327 337 331 330 327 347 340 327 320 318 318 319 317 309 298 284 269 260
170 164 178 179 185 185 182 183 181 180 184 179 180 186 183 188 193 194 187 187 187 179 173 168 154 152 151 156 157 168 134 135 137 139 142 141 136 132 128 128 124 143 151 151 148 150 113 112 123 138 136 137 150 147 199 199 136 269 346 324 309 307 295 278 275 308 300 298 308 309 269 347 328 321 307 317 315 318 321 322 314 305 295 277 264
167 177 180 179 174 173 177 177 182 183 188 189 188 197 181 192 192 199 229 218 183 158 151 135 145 150 148 157 154 161 135 135 140 145 147 144 144 143 142 143 142 162 152 136 125 135 137 142 146 148 160 155 154 164 164 184 173 224 26 348 330 301 289 276 280 266 280 305 298 308 319 314 251 273 328 307 294 295 310 308 304 299 295 291 275
143 140 146 154 167 167 178 183 191 192 192 189 192 185 139 204 213 210 198 184 140 108 126 142 145 155 157 171 168 161 149 140 143 145 147 150 141 145 151 148 156 161 143 146 141 140 150 161 175 172 158 142 176 184 190 174 167 170 194 198 211 286 308 309 266 288 281 257 284 303 311 318 320 308 322 311 323 319 306 301 298 296 293 290 290
142 148 155 167 168 177 184 191 200 192 187 195 191 194 165 173 238 242 236 191 157 140 137 141 143 160 171 177 176 177 165 164 156 158 150 145 142 158 152 183 158 144 132 146 168 183 183 183 175 167 167 170 180 197 181 167 164 174 200 203 207 205 213 226 248 263 260 282 298 295 303 292 290 306 310 320 319 310 296 290 296 300 298 292 285